sat.trackr.live / text

‹ back to catalog

STARLINK-34549

NORAD 65017 · 2025-161C

PAYLOAD ACTIVE UNKNOWN

§ Identity

Operator
Country
US
Launch date
2025-07-30
Launch site
AFWTR
Launch vehicle
Mass (kg)
RCS (m²)

Purposes: comms

External: N2YO · Heavens-Above · Gunter

§ Orbital elements

Epoch: 2026-09-20T07:19:28.386624Z

Period
93.85 min
Inclination
53.1585°
Eccentricity
0.0001522
Mean motion
15.34399998 rev/d
Perigee alt
461.7 km
Apogee alt
463.7 km
Semi-major
6,840.8 km
B*
4.9745e-4
RAAN
108.2949°
Arg perigee
87.7041°
Mean anomaly
272.4135°
Rev number
6,526

§ Raw data

STARLINK-345491 65017U 25161C   26263.30518966  .00016468  00000+0  49745-3 0  99972 65017  53.1585 108.2949 0001522  87.7041 272.4135 15.34399998 65261

JSON: /api/v1/satellites/65017 · /tle

For live sub-satellite position, see the globe view (requires WebGL).

§ Visibility from observer

Set your observer location to see the next 7 days of passes ≥ 10°. The values pass through the URL so the page stays shareable.

No JS? Fill the form by hand. The geolocation button needs JavaScript.